Weather in Bridgewater

Canada     44°22′36″N   64°31′05″W
temp.,
°C
wind,
m/s
gust,
m/s
humid.,
%
clouds,
%
prec.,
mm/h
press.,
hPa
HPBL,
m
26 july, mon
mon2600:00+15s2882100 0.0 1015275
03:00+16s31195100 0.1 1014545
06:00+16ssw3119475 0.1 1012558
09:00+17s2997100 0.3 1012509
12:00+21sw238393 0.1 1011620
15:00+26sw246521 0.6 10091004
18:00+22se3686100 2.1 1009187
21:00+18w11955 3.3 101024
27 july, tue
tue2700:00+17w12989 0.3 101136
03:00+16wsw23985 0.3 101077
06:00+15w22975 0.0 101028
09:00+21ssw24841 0.0 1011268
12:00+29wsw48381 0.0 10102183
15:00+30wsw583120 0.0 10092940
18:00+28w593795 0.0 10101919
21:00+20w3106881 0.0 1012309
28 july, wed
wed2800:00+16nw297597 0.0 1013208
03:00+15nnw397399 0.0 1014274
06:00+15nw1367100 0.0 1015126
09:00+16nw2567100 0.0 1016282
12:00+17wnw1359100 0.3 1017744
15:00+21nw3436100 0.3 10151683
18:00+21nnw44330 0.0 10141942
21:00+14nnw22620 0.0 101521
29 july, thu
thu2900:00+11nw22700 0.0 101634
03:00+9wnw11791 0.0 101611
06:00+9wnw11830 0.0 101612
09:00+18w24512 0.0 1016356
12:00+23sw243220 0.0 10152117
15:00+26sw343078 0.0 10132465
18:00+24ssw564012 0.0 10121504
21:00+16ssw4116027 0.0 1013375
30 july, fri
fri3000:00+13s2979100 0.0 1012287
03:00+16sse31086100 0.0 1009569
06:00+17ssw51098100 3.6 1006867
09:00+15sse41199100 9.5 1004520
12:00+19ssw41097100 0.4 1003959
15:00+19sw389898 1.1 1002653
18:00+22wsw367637 0.5 1002924
21:00+17nw38930 1.1 1003206